#timestamp,LO_Frequency,Hit,StdDev 
1513454415.3,286047018.6,N
1513454435.1,286047014.2,N
1513454436.0,286047014.2,N
1513454455.8,286047009.6,N
1513454475.7,286047012.7,N
1513454495.5,286047016.8,Y
1513454515.3,286047005.0,P
1513454535.2,286047006.0,N
1513454555.9,286047002.9,N
1513454575.7,286047002.3,N
1513454595.6,286047002.8,N
1513454615.4,286047000.3,N
1513454635.2,286046999.1,N
1513454655.0,286046998.2,N
1513454656.0,286046998.2,N
1513454675.8,286047005.2,N
1513454695.6,286047007.3,N
1513454715.4,286047005.6,N
1513454735.3,286047001.9,N
1513454755.1,286047007.6,N
1513454775.8,286047009.1,N
1513454795.7,286047005.9,N
1513454815.5,286047004.6,N
1513454835.3,286047007.5,N
1513454855.2,286047002.9,N
1513454875.9,286047003.0,N
1513454895.7,286047003.1,N
1513454915.6,286047002.0,N
1513454935.4,286047004.8,N
1513454955.2,286047007.1,N
1513454975.0,286047003.4,N
1513454976.0,286047003.4,N
1513454995.8,286047000.1,N
1513455015.6,286047001.1,N
1513455035.4,286047000.6,N
1513455055.3,286047000.7,N
1513455075.1,286047001.2,N
1513455095.8,286046999.2,N
1513455115.7,286046997.8,N
1513455135.5,286046999.1,N
1513455155.3,286046999.0,N
1513455175.2,286047001.9,N
1513455195.9,286047000.5,N
1513455215.7,286046999.3,N
1513455235.6,286047000.7,N
1513455255.4,286047000.2,N
1513455275.2,286046998.2,N
1513455295.0,286047001.7,N
1513455296.0,286047001.7,N
1513455315.8,286046999.9,N
1513455335.6,286047000.3,N
1513455355.4,286046999.9,N
1513455375.3,286046998.3,N
1513455395.1,286046997.1,N
1513455415.8,286046995.1,N
1513455435.7,286046995.5,N
1513455455.5,286046996.0,N
1513455475.3,286046992.7,N
1513455495.2,286046993.1,N
1513455515.9,286046993.0,N
1513455535.7,286046989.1,Y
1513455555.6,286046992.7,P
1513455575.4,286046994.6,N
1513455595.2,286046991.6,P
1513455615.1,286046989.3,Y
1513455616.0,286046989.3,P
1513455635.8,286046993.4,N
1513455655.6,286046992.6,P
1513455675.5,286046986.9,Y
1513455695.3,286046997.8,P
1513455715.1,286046997.0,N
1513455735.9,286046999.5,N
1513455755.7,286047000.2,N
1513455775.5,286047002.5,N
1513455795.4,286046998.5,N
1513455815.2,286046999.2,N
1513455835.0,286046998.2,N
1513455835.9,286046998.2,N
1513455855.8,286046997.4,N
1513455875.6,286046995.5,N
1513455895.4,286046997.7,N
1513455915.2,286046999.1,N
1513455935.1,286046997.6,N
1513455936.0,286046997.6,N
1513455955.8,286046995.1,N
1513455975.6,286046995.1,N
1513455995.5,286046998.0,N
1513456015.3,286046998.2,N
1513456035.1,286046997.2,N
1513456055.9,286046998.8,N
1513456075.7,286046994.5,N
1513456095.5,286046992.0,Y
1513456115.4,286046990.1,P
1513456135.2,286046993.0,N
1513456155.0,286046993.5,N
1513456155.9,286046993.5,N
1513456175.8,286046994.2,N
1513456195.6,286046994.8,N
1513456215.4,286046991.3,Y
1513456235.3,286046993.3,P
1513456255.1,286046993.3,P
1513456256.0,286046993.3,P
1513456275.8,286046996.2,Y
1513456295.7,286047003.6,P
1513456315.5,286047007.4,N
1513456335.3,286047005.3,N
1513456355.2,286047003.4,N
1513456375.9,286047004.1,N
1513456395.7,286047007.5,N
1513456415.6,286047006.0,N
1513456435.4,286047004.0,N
1513456455.2,286047001.7,N
1513456475.0,286047003.9,N
1513456476.0,286047003.9,N
1513456495.8,286047005.4,N
1513456515.6,286047006.8,N
1513456535.4,286047007.8,N
1513456555.3,286047009.3,N
1513456575.1,286047009.5,N
1513456595.8,286047011.8,Y
1513456615.7,286047007.8,P
1513456635.5,286047006.6,P
1513456655.3,286047009.5,P
1513456675.2,286047006.6,Y
1513456695.0,286046999.2,P
1513456695.9,286046999.2,N
1513456715.7,286046998.6,N
1513456735.6,286046999.0,N
1513456755.4,286047001.0,N
1513456775.2,286046997.3,N
1513456795.1,286046995.5,N
1513456796.0,286046995.5,N
1513456815.8,286046992.9,N
1513456835.6,286046989.3,N
1513456855.5,286046987.4,N
1513456875.3,286046987.7,N
1513456895.1,286046985.8,N
1513456915.9,286046989.5,N
1513456935.7,286046989.8,N
1513456955.5,286046990.3,N
1513456975.3,286046987.3,N
1513456995.2,286046989.4,N
1513457015.0,286046989.3,N
1513457015.9,286046989.3,N
1513457035.7,286046986.9,N
1513457055.6,286046990.0,N
1513457075.4,286046988.9,N
1513457095.2,286046984.5,N
1513457115.1,286046985.8,N
1513457116.0,286046985.8,N
1513457135.8,286046986.3,N
1513457155.6,286046988.3,N
1513457175.5,286046987.1,N
1513457195.3,286046987.1,N
1513457215.1,286046985.3,Y
1513457235.9,286046998.0,P
1513457255.7,286046996.8,N
1513457275.5,286046999.2,N
1513457295.4,286046998.4,N
1513457315.2,286047000.6,N
1513457335.0,286046999.3,N
1513457335.9,286046999.3,N
1513457355.8,286046995.5,N
1513457375.6,286046997.7,N
1513457395.4,286046995.0,N
1513457415.2,286046997.0,N
1513457435.1,286046998.4,N
1513457436.0,286046998.4,N
1513457455.8,286047000.0,N
1513457475.6,286046999.5,N
1513457495.5,286046997.1,N
1513457515.3,286047001.0,N
1513457535.1,286047001.4,N
1513457555.9,286047005.5,N
1513457575.7,286046999.8,N
1513457595.5,286047003.7,N
1513457615.4,286047006.9,N
1513457635.2,286047008.1,N
1513457655.0,286047008.3,N
1513457655.9,286047008.3,N
1513457675.8,286047012.3,N
1513457695.6,286047006.3,N
1513457715.4,286047002.9,N
1513457735.2,286047003.4,N
1513457755.1,286047004.6,N
1513457756.0,286047004.6,N
1513457775.8,286047004.8,N
1513457795.6,286047001.4,N
1513457815.5,286047002.2,N
1513457835.3,286047003.4,N
1513457855.1,286047005.8,N
1513457875.9,286047005.2,N
1513457895.7,286047003.5,N
1513457915.5,286047003.9,N
1513457935.4,286047002.7,N
1513457955.2,286047000.6,N
1513457975.0,286047001.2,N
1513457975.9,286047001.2,N
1513457995.8,286046999.2,N
